Regional Weather Roundup
Issued by NWS Upton, NY

Current Version | Previous Version | Text Only | Print | Product List | Glossary Off
Versions: 1 2 3 4 5 6 7 8 9 10 11 12 13 14 15 16 17 18 19 20 21 22 23 24 25 26 27

000
ASUS41 KOKX 261309
RWROKX

REGIONAL WEATHER ROUNDUP
NATIONAL WEATHER SERVICE NEW YORK NY
900 AM EDT WED JUL 26 2017

NOTE: "FAIR" INDICATES FEW OR NO CLOUDS BELOW 12,000 FEET WITH NO
SIGNIFICANT WEATHER AND/OR OBSTRUCTIONS TO VISIBILITY.

NYZ071-072-176-178-NJZ106-104-261400-
NEW YORK CITY METRO AREA

CITY           SKY/WX    TMP DP  RH WIND       PRES   REMARKS
Central Park   SUNNY     70  55  59 E5        30.28R
Bronx Bot Gard   N/A     70  54  56 E2        30.28R
LaGuardia APRT MOSUNNY   69  59  70 NE7       30.25R
Kennedy INTL   MOSUNNY   71  57  61 NE6       30.26R
Breezy Point     N/A     68 N/A N/A NE5         N/A
Newark/Liberty MOSUNNY   71  57  61 VRB7      30.25R
Teterboro      SUNNY     71  57  61 VRB3      30.25R
$$

NYZ177-179-078>081-261400-
LONG ISLAND NEW YORK

CITY           SKY/WX    TMP DP  RH WIND       PRES   REMARKS
Jones Beach      N/A     66 N/A N/A NE8         N/A
Matinecock PT    N/A     66 N/A N/A NE5         N/A
Farmingdale    SUNNY     69  56  62 NE7       30.26R
MacArthur/ISP  MOSUNNY   70  57  63 NW9       30.26R
Shirley        SUNNY     70  59  68 N6        30.26R
Mt Sinai Harb    N/A    N/A N/A N/A N3          N/A
Westhampton    SUNNY     70  57  63 N5        30.27R
East Hampton   FAIR      68  58  71 NE5       30.25R
Montauk          N/A     67  59  75 N6        30.26R
$$

NYZ052-065-067-261400-
HUDSON VALLEY

CITY           SKY/WX    TMP DP  RH WIND       PRES   REMARKS
White Plains   SUNNY     69  53  56 CALM      30.26R
Larchmont Harb   N/A     66 N/A N/A NE5         N/A
Croton O-T Hud   N/A     66 N/A N/A MISG        N/A
Newburgh       MOSUNNY   63  61  94 CALM      30.30R
Montgomery     SUNNY     65  60  84 CALM      30.27S
Poughkeepsie   SUNNY     66  59  78 CALM      30.26S
Albany         FOG       61  59  93 CALM      30.29R VSB 1
$$

NJZ001-105-106-008-010-013-015-019>022-104-261400-
NEW JERSEY

CITY           SKY/WX    TMP DP  RH WIND       PRES   REMARKS
Newark/Liberty MOSUNNY   71  57  61 VRB7      30.25R
Teterboro      SUNNY     71  57  61 VRB3      30.25R
Caldwell       MOSUNNY   69  58  67 E3        30.27R
Somerville     SUNNY     71  60  68 N3        30.25R
Linden         FAIR      71  55  56 CALM      30.25S
Perth Amboy      N/A     70 N/A N/A SE5         N/A
Sussex         PTSUNNY   66  59  78 CALM      30.28R
Andover          N/A     65  58  78 NW5       30.28R
Trenton        CLOUDY    68  62  81 E5        30.25R
Millville      CLOUDY    70  65  84 NE8       30.23R
Atlantic City  CLOUDY    71  64  78 NE8       30.23R
Wrightstown    NOT AVBL
Toms River     CLOUDY    69  61  75 NE7       30.26R
Belmar         CLOUDY    68  59  73 NE8       30.26R
$$

PAZ047>061-062-071-261400-
EASTERN PENNSYLVANIA

CITY           SKY/WX    TMP DP  RH WIND       PRES   REMARKS
Philadelphia   CLOUDY    70  62  76 E6        30.26R
Allentown      CLOUDY    67  60  78 NE7       30.27R
Scranton       CLOUDY    65  59  81 SE3       30.27F
$$

CTZ002-004>006-009-010-012-RIZ004-006-007-MAZ004-011-015-261400-
SOUTHERN NEW ENGLAND
 IN CT

CITY           SKY/WX    TMP DP  RH WIND       PRES   REMARKS
Bradley INTL   MOSUNNY   63  58  83 VRB5      30.27R
Hartford       SUNNY     64  59  83 NE3       30.27R
Danbury        SUNNY     67  58  72 CALM      30.29R
Wtrbury/Oxford SUNNY     66  55  68 CALM      30.29R
Bridgeport     SUNNY     70  56  61 VRB5      30.26R
Meriden        SUNNY     66  58  75 CALM      30.27R
New Haven      SUNNY     69  58  67 N9        30.26R
Chester        FAIR      68  59  73 CALM      30.27R
Groton         SUNNY     69  59  70 N8        30.24R
Wilimantic     SUNNY     67  59  75 CALM      30.26R

 IN RI

CITY           SKY/WX    TMP DP  RH WIND       PRES   REMARKS
Providence     MOSUNNY   69  59  70 CALM      30.25R
Block Island   SUNNY     66  60  81 NE7       30.25R
Westerly       SUNNY     70  60  70 N6        30.25R
 IN MA

CITY           SKY/WX    TMP DP  RH WIND       PRES   REMARKS
Boston         SUNNY     70  58  65 N3        30.23S
Worcester      SUNNY     69  52  54 N5        30.27R
Westfield      MOSUNNY   61  58  90 CALM      30.27S
Provincetown     N/A     65  60  84 MISG        N/A
Nantucket      SUNNY     67  59  75 NE8       30.23R
$$

ANZ330-335-338-340-345-350-353-355-261400-
COASTAL MARINE OBSERVATIONS


STATION/POSITION TIME  SKY/WX   TEMP    WIND        PRES    VSBY  WAVE
                                AIR SEA DIR/SP/G                  HT/PER
                 (UTC)          (F)     (DEG/KT/KT) (MB)    (MI)  (FT/S)
NY HARB ENTRANCE 1150            67 71   40/ 10/ 10 1023.5          2/ 5
20 S FIRE ISLAND 1250            67 73   60/ 14/ 16 1023.7          3/ 5
GREAT SOUTH BAY  1230            67 74   30/  6/ 10   N/A
23 SSW MONTAUK P 1150            65 72              1023.9          3/11
15 E BARNEGAT LI 1230               72                N/A           3/ 5
HUDSON CANYON    1150            67 73   70/ 16/ 17 1022.3          3/ 5
KINGS POINT      1230            67 71   50/  3/  5 1024.6
EXECUTION ROCKS  1245            69      60/  6/  6   N/A
CENTRAL LI SOUND NOT AVBL
EASTERN LI SOUND NOT AVBL
ROBBINS REEF     1230                    60/  3/  5 1025.0
$$


>>>>>>>>>>>>>>>>>>>>>>>>>>>> KEY <<<<<<<<<<<<<<<<<<<<<<<<<<<
>                                                          <
>     SKY/WX - Sky Condition/Present Weather               <
>     TMP    - Temperature in Fahrenheit                   <
>     DP     - Dew Point in Fahrenheit                     <
>     RH     - Relative Humidity in Percent                <
>     WIND   - Direction (from) and Speed in MPH           <
>     PRES   - Mean Sea Level Pressure (inches of Hg)      <
>     WCI    - Wind Chill Index                            <
>     VSB    - VISIBILITY IN MILES                         <
>     HX     - HEAT INDEX                                  <
>     TC     - TEMPERATURE IN CELSIUS                      <
>     VRB    - VARIABLE WIND DIRECTION                     <
>                                                          <
>>>>>>>>>>>>>>>>>>>>>>>>>>>> KEY <<<<<<<<<<<<<<<<<<<<<<<<<<<




USA.gov is the U.S. government's official web portal to all federal, state and local government web resources and services.